User: anonymous   Login
Location: Caltech
(34.1382°N, 118.1253°W)
Time: 13:55:54
(UTC-07:00)
Language:

Meteor 1-11 Rocket - Orbit

View from above orbital plane
View from above orbital plane
View from above satellite
View from above satellite

Ground track
Ground track

The orbit data is extracted from the following two-line orbital elements,

1  5918U 72022B   18112.88446163 +.00000020 +00000-0 +42630-5 0  9991
2  5918 081.2407 026.2813 0058537 175.4874 184.6836 14.05839363361247
Epoch (UTC): 22 April 2018 21:13:37
Eccentricity: 0.0058537
inclination: 81.2407°
perigee height: 831 km
apogee height: 916 km
right ascension of ascending node: 26.2813°
argument of perigee: 175.4874°
revolutions per day: 14.05839363
mean anomaly at epoch: 184.6836°
orbit number at epoch: 36124

The dashed part of the orbit path shows where the satellite is in the earth's shadow,  

DLR